San Luis Obispo, CA

12:38 PM PDT on October 19, 2018 (GMT -0700)
San Luis Obispo County-McChesney

Weather History for KSBP - May, 2018

Change the Weather History Date:

Wednesday, May 16, 2018

  Actual Average Record
Temperature  
Mean Temperature 57 °F -  
Max Temperature 69 °F 72 °F 99 °F (1970)
Min Temperature 46 °F 47 °F 39 °F (1971)
Degree Days  
Heating Degree Days 8    
Growing Degree Days 7 (Base 50)    
Moisture  
Dew Point 47 °F    
Average Humidity 72    
Maximum Humidity 86    
Minimum Humidity 45    
Precipitation  
Precipitation 0.00 in - - ()
Sea Level Pressure  
Sea Level Pressure 30.06 in    
Wind  
Wind Speed 6 mph (NNW)    
Max Wind Speed 21 mph    
Max Gust Speed 28 mph    
Visibility 10 miles    
Events      
Averages and records for this station are not official NWS values.
T = Trace of Precipitation, MM = Missing Value Source: NWS Daily Summary

Daily Weather History Graph

Daily Weather History Graph

Search for Another Location

Airport or City:

Astronomy

May. 16, 2018 Rise Set
Actual Time 5:57 AM PDT 8:00 PM PDT
Civil Twilight 5:29 AM PDT 8:29 PM PDT
Nautical Twilight 4:54 AM PDT 9:03 PM PDT
Astronomical Twilight 4:18 AM PDT 9:40 PM PDT
Moon 7:12 AM PDT (5/16) 9:34 PM PDT (5/16)
Length of Visible Light 14h 59m
Length of Day
14h 03m
New Moon, 2% of the Moon is Illuminated
May 16
New Moon
May 21
First Quarter
May 29
Full
Jun 6
Last Quarter
Jun 13
New

Hourly Weather History & Observations

Time (PDT) Temp. Dew Point Humidity Pressure Visibility Wind Dir Wind Speed Gust Speed Precip Events Conditions
12:56 AM 53.1 °F 46.9 °F 80% 30.07 in 10.0 mi SE 3.5 mph - N/A   Overcast
1:56 AM 52.0 °F 46.9 °F 83% 30.06 in 10.0 mi Calm Calm - N/A   Mostly Cloudy
2:56 AM 51.1 °F 46.0 °F 83% 30.06 in 10.0 mi South 3.5 mph - N/A   Mostly Cloudy
3:08 AM 51.1 °F 46.0 °F 83% 30.06 in 10.0 mi Calm Calm - N/A   Partly Cloudy
3:34 AM 50.0 °F 46.0 °F 86% 30.06 in 10.0 mi Calm Calm - N/A   Mostly Cloudy
3:43 AM 50.0 °F 46.0 °F 86% 30.06 in 10.0 mi Calm Calm - N/A   Scattered Clouds
3:56 AM 50.0 °F 46.0 °F 86% 30.06 in 10.0 mi Calm Calm - N/A   Partly Cloudy
4:56 AM 48.0 °F 44.1 °F 86% 30.06 in 10.0 mi SE 3.5 mph - N/A   Clear
5:56 AM 46.9 °F 43.0 °F 86% 30.06 in 10.0 mi Calm Calm - N/A   Partly Cloudy
6:56 AM 48.0 °F 44.1 °F 86% 30.07 in 10.0 mi ESE 3.5 mph - N/A   Scattered Clouds
7:56 AM 53.1 °F 46.0 °F 77% 30.08 in 10.0 mi Calm Calm - N/A   Clear
8:56 AM 59.0 °F 46.9 °F 64% 30.08 in 10.0 mi Calm Calm - N/A   Clear
9:56 AM 64.9 °F 45.0 °F 48% 30.07 in 10.0 mi Variable 6.9 mph - N/A   Clear
10:56 AM 66.9 °F 45.0 °F 45% 30.06 in 10.0 mi Variable 4.6 mph - N/A   Clear
11:56 AM 66.9 °F 46.9 °F 49% 30.08 in 10.0 mi WNW 17.3 mph 23.0 mph N/A   Clear
12:56 PM 68.0 °F 48.0 °F 49% 30.07 in 10.0 mi NNW 19.6 mph 27.6 mph N/A   Clear
1:56 PM 68.0 °F 46.9 °F 47% 30.07 in 10.0 mi NW 19.6 mph 26.5 mph N/A   Clear
2:56 PM 68.0 °F 48.0 °F 49% 30.06 in 10.0 mi NW 19.6 mph 26.5 mph N/A   Clear
3:56 PM 66.0 °F 48.0 °F 52% 30.05 in 10.0 mi NW 19.6 mph - N/A   Clear
4:56 PM 64.0 °F 46.9 °F 54% 30.04 in 10.0 mi NW 19.6 mph 25.3 mph N/A   Clear
5:56 PM 63.0 °F 48.9 °F 60% 30.03 in 10.0 mi NW 20.7 mph 25.3 mph N/A   Clear
6:56 PM 60.1 °F 50.0 °F 69% 30.04 in 10.0 mi NNW 15.0 mph - N/A   Clear
7:56 PM 57.9 °F 50.0 °F 75% 30.05 in 10.0 mi NNW 11.5 mph - N/A   Clear
8:56 PM 55.9 °F 50.0 °F 80% 30.06 in 10.0 mi NNW 9.2 mph - N/A   Clear
9:41 PM 57.0 °F 50.0 °F 77% 30.07 in 10.0 mi NNW 10.4 mph - N/A   Mostly Cloudy
9:56 PM 57.0 °F 50.0 °F 77% 30.06 in 10.0 mi NNW 10.4 mph - N/A   Overcast
10:56 PM 55.9 °F 50.0 °F 80% 30.06 in 10.0 mi NW 8.1 mph - N/A   Overcast
11:04 PM 55.0 °F 50.0 °F 83% 30.06 in 10.0 mi NW 9.2 mph - N/A   Overcast
11:25 PM 55.0 °F 50.0 °F 83% 30.05 in 10.0 mi NNW 10.4 mph - N/A   Partly Cloudy
11:56 PM 55.0 °F 50.0 °F 83% 30.04 in 10.0 mi NNW 8.1 mph - N/A   Clear